Orbital Elements at Epoch 2459000.5 (2020-May-31.0) TDB
Reference: JPL 23 (heliocentric ecliptic J2000)
Element | Value | Uncertainty (1-sigma) | Units |
e | .1289340802101878 | 3.6204e-08 | |
a | 2.81105212581426 | 1.3284e-08 | au |
q | 2.448611705549505 | 1.0534e-07 | au |
i | 4.881522755797517 | 4.0492e-06 | deg |
node | 30.607541346441 | 4.7439e-05 | deg |
peri | 16.03903851511743 | 5.0343e-05 | deg |
M | 252.0150776644317 | 1.82e-05 | deg |
tp | 2459516.871655008687 (2021-Oct-29.37165501) | 8.8691e-05 | TDB |
period | 1721.47918230152 4.71 | 1.2202e-05 3.341e-08 | d yr |
n | .2091224823983643 | 1.4823e-09 | deg/d |
Q | 3.173492546079015 | 1.4997e-08 | au |
|
| | Orbit Determination Parameters
Additional Information
|